DW2150 Weather Reports


time (UTC)temp
C
wind
direction
speed
KPH
gust
KPH
rain 1hr
cm
rain 24hr
cm
rain mn
cm
humidity
%
barometer
mb
20260904013610 27 5 0.0 0.0 0.00 0.41 0.41 93 1012.5
20260904013107 27 5 0.0 0.0 0.00 0.41 0.41 93 1012.5
20260904012604 27 5 0.0 0.0 0.00 0.41 0.41 93 1012.5
20260904012101 27 5 0.0 0.0 0.00 0.41 0.41 93 1012.5
20260904011558 27 5 0.0 0.0 0.00 0.41 0.41 93 1012.5
20260904011056 27 5 0.0 0.0 0.00 0.41 0.41 93 1012.5
20260904010534 27 5 0.0 1.6 0.00 0.41 0.41 93 1012.5
20260904010031 27 5 0.0 1.6 0.00 0.41 0.41 93 1012.5
20260904005528 27 5 0.0 3.2 0.00 0.41 0.41 93 1012.5
20260904004952 27 5 0.0 3.2 0.00 0.41 0.41 93 1012.5
20260904004449 27 5 0.0 3.2 0.00 0.41 0.41 93 1012.2
20260904003946 27 5 1.6 3.2 0.00 0.41 0.41 93 1012.5
20260904003444 27 5 0.0 3.2 0.00 0.41 0.41 93 1012.5
20260904002914 27 5 0.0 3.2 0.00 0.41 0.41 93 1012.5
20260904002411 27 5 0.0 3.2 0.00 0.41 0.41 93 1012.5
20260904001908 27 5 0.0 3.2 0.00 0.41 0.41 92 1012.5
20260904001405 27 5 0.0 3.2 0.00 0.41 0.41 93 1012.5
20260904000902 27 5 1.6 3.2 0.00 0.41 0.41 93 1012.5
20260904000359 27 5 0.0 3.2 0.00 0.41 0.41 93 1012.5
20260903235856 27 5 1.6 4.8 0.00 0.41 0.41 92 1012.5
20260903235351 27 25 0.0 4.8 0.00 0.41 0.41 92 1012.5
20260903234847 27 25 1.6 4.8 0.00 0.41 0.41 92 1012.5
20260903234344 28 323 1.6 4.8 0.00 0.41 0.41 93 1012.5
20260903233841 28 338 1.6 4.8 0.00 0.41 0.41 92 1012.5
20260903233307 28 338 1.6 4.8 0.00 0.41 0.41 92 1012.5
20260903232803 27 267 1.6 4.8 0.00 0.41 0.41 92 1012.5
20260903232228 27 97 1.6 4.8 0.00 0.41 0.41 92 1012.5
20260903231725 28 8 1.6 3.2 0.00 0.41 0.41 92 1012.2
20260903231151 28 360 0.0 0.0 0.00 0.41 0.41 93 1012.5
20260903230648 28 42 0.0 0.0 0.00 0.41 0.41 93 1012.5
20260903230124 28 300 0.0 0.0 0.00 0.41 0.41 92 1012.5
20260903225547 28 300 0.0 0.0 0.00 0.41 0.41 92 1012.5
20260903225044 28 355 0.0 0.0 0.00 0.41 0.41 92 1012.5
20260903224541 28 355 0.0 0.0 0.00 0.41 0.41 92 1012.5
20260903224038 28 109 0.0 0.0 0.00 0.41 0.41 92 1012.5
20260903223535 28 109 0.0 3.2 0.00 0.41 0.41 92 1012.9
20260903223032 28 355 0.0 4.8 0.00 0.41 0.41 92 1012.9
20260903222441 28 360 0.0 6.4 0.00 0.41 0.41 92 1012.9
20260903221938 28 112 3.2 8.0 0.00 0.41 0.41 92 1012.9
20260903221435 28 62 1.6 8.0 0.00 0.41 0.41 92 1012.9
20260903220933 28 77 3.2 8.0 0.00 0.41 0.41 92 1012.9
20260903220411 28 75 3.2 8.0 0.00 0.41 0.41 92 1012.9
20260903215908 28 61 1.6 6.4 0.00 0.41 0.41 92 1012.9
20260903215404 28 70 3.2 6.4 0.00 0.41 0.41 92 1012.9
20260903214901 28 79 3.2 6.4 0.00 0.41 0.41 92 1013.2
20260903214326 28 88 1.6 3.2 0.00 0.41 0.41 93 1013.2
20260903213823 28 88 1.6 3.2 0.00 0.41 0.41 93 1013.5
20260903213249 28 50 1.6 4.8 0.00 0.41 0.41 92 1013.5
20260903212209 28 92 0.0 4.8 0.00 0.41 0.41 92 1013.5
20260903211706 28 66 1.6 4.8 0.00 0.41 0.41 92 1013.5
20260903211159 28 74 3.2 4.8 0.03 0.41 0.41 92 1013.5
20260903210656 28 56 1.6 4.8 0.05 0.41 0.41 92 1013.5
20260903210146 28 31 1.6 4.8 0.10 0.41 0.41 92 1013.5
20260903205631 28 29 1.6 6.4 0.20 0.41 0.41 93 1013.5
20260903205026 28 27 1.6 6.4 0.28 0.41 0.41 93 1013.5
20260903204523 28 356 1.6 6.4 0.33 0.41 0.41 93 1013.5
20260903203948 28 74 1.6 6.4 0.36 0.41 0.41 92 1013.5
20260903203445 28 70 0.0 3.2 0.41 0.41 0.41 92 1013.5
20260903202942 28 70 0.0 3.2 0.41 0.41 0.41 93 1013.2
20260903202438 28 58 3.2 3.2 0.41 0.41 0.41 92 1013.2
20260903201935 28 325 0.0 0.0 0.41 0.41 0.41 92 1013.5
20260903201417 28 325 0.0 0.0 0.38 0.38 0.38 91 1013.5
20260903200843 28 325 0.0 0.0 0.38 0.38 0.38 91 1013.5
20260903200318 29 325 0.0 1.6 0.33 0.33 0.33 90 1013.2
20260903195816 29 325 0.0 1.6 0.23 0.23 0.23 90 1013.5
20260903195312 30 325 0.0 3.2 0.15 0.15 0.15 89 1013.5
20260903194809 30 325 0.0 3.2 0.08 0.08 0.08 87 1013.9
20260903194306 31 325 1.6 4.8 0.05 0.05 0.05 85 1013.9
20260903193802 32 325 1.6 8.0 0.03 0.03 0.03 83 1013.9
20260903193258 32 325 1.6 11.3 0.00 0.00 0.00 81 1013.9
20260903192755 32 65 3.2 12.9 0.00 0.00 0.00 79 1013.9
20260903192252 32 23 1.6 14.5 0.00 0.00 0.00 79 1013.9
20260903191733 33 44 3.2 16.1 0.00 0.00 0.00 77 1013.5
20260903191159 33 74 3.2 16.1 0.00 0.00 0.00 76 1013.2
20260903190656 33 50 3.2 16.1 0.00 0.00 0.00 75 1013.5
20260903190153 33 55 4.8 16.1 0.00 0.00 0.00 75 1013.5
20260903185631 33 22 3.2 14.5 0.00 0.00 0.00 75 1013.5
20260903185127 33 48 3.2 14.5 0.00 0.00 0.00 77 1013.5
20260903184625 33 58 4.8 12.9 0.00 0.00 0.00 76 1013.9
20260903184122 33 49 3.2 12.9 0.00 0.00 0.00 77 1013.9
20260903183618 33 32 3.2 12.9 0.00 0.00 0.00 78 1013.9
20260903183115 33 63 3.2 12.9 0.00 0.00 0.00 79 1013.9
20260903182612 32 71 4.8 12.9 0.00 0.00 0.00 79 1013.9
20260903182108 33 46 3.2 12.9 0.00 0.00 0.00 78 1013.9
20260903181547 33 31 4.8 11.3 0.00 0.00 0.00 79 1013.9
20260903181043 33 54 3.2 11.3 0.00 0.00 0.00 79 1013.9
20260903180540 33 26 3.2 11.3 0.00 0.00 0.00 78 1014.2
20260903180005 33 72 3.2 11.3 0.00 0.00 0.00 77 1014.6
20260903175502 33 81 1.6 9.7 0.00 0.00 0.00 78 1014.6
20260903174959 33 78 4.8 9.7 0.00 0.00 0.00 76 1014.6
20260903174456 33 74 1.6 4.8 0.00 0.00 0.00 73 1014.6
20260903173953 33 79 1.6 4.8 0.00 0.00 0.00 74 1014.6
20260903173451 33 91 0.0 4.8 0.00 0.00 0.00 74 1014.6
20260903172913 33 167 3.2 4.8 0.00 0.00 0.00 74 1014.6
20260903172314 34 330 1.6 4.8 0.00 0.00 0.00 74 1014.6
20260903171809 33 355 1.6 4.8 0.00 0.00 0.00 76 1014.9
20260903171247 33 15 1.6 4.8 0.00 0.00 0.00 77 1014.9
20260903170725 33 249 1.6 4.8 0.00 0.00 0.00 75 1014.9
20260903170221 32 243 1.6 4.8 0.00 0.00 0.00 78 1014.9
20260903165718 32 244 1.6 4.8 0.00 0.00 0.00 78 1014.9
20260903165215 32 239 1.6 4.8 0.00 0.00 0.00 80 1015.2
20260903164712 32 265 3.2 4.8 0.00 0.00 0.00 79 1014.9
20260903164138 32 20 1.6 9.7 0.00 0.00 0.00 81 1014.9
20260903163635 31 274 1.6 9.7 0.00 0.00 0.00 83 1014.9
20260903163133 31 274 0.0 9.7 0.00 0.00 0.00 84 1014.9
20260903162630 30 260 4.8 9.7 0.00 0.00 0.00 86 1014.9
20260903162056 30 260 1.6 3.2 0.00 0.00 0.00 87 1014.6
20260903161553 29 249 0.0 3.2 0.00 0.00 0.00 89 1014.6
20260903161019 28 65 0.0 3.2 0.00 0.00 0.00 89 1014.6
20260903160426 28 65 0.0 3.2 0.00 0.00 0.00 89 1014.6
20260903155852 28 65 1.6 1.6 0.00 0.00 0.00 90 1014.6
20260903155348 28 65 0.0 1.6 0.00 0.00 0.00 90 1014.9
20260903154844 28 65 0.0 1.6 0.00 0.00 0.00 90 1014.9
20260903154341 28 65 1.6 3.2 0.00 0.00 0.00 90 1014.9
20260903153800 27 65 0.0 3.2 0.00 0.00 0.00 91 1014.9
20260903153234 27 65 0.0 3.2 0.00 0.00 0.00 90 1014.9
20260903152729 27 59 1.6 1.6 0.00 0.00 0.00 90 1014.9
20260903152210 27 55 1.6 1.6 0.00 0.00 0.00 91 1014.9
20260903151706 27 53 0.0 1.6 0.00 0.00 0.00 91 1014.9
20260903151203 27 73 0.0 0.0 0.00 0.00 0.00 90 1014.9
20260903150628 27 80 0.0 0.0 0.00 0.00 0.00 90 1014.9
20260903150125 27 80 0.0 0.0 0.00 0.00 0.00 91 1014.6
20260903145557 27 80 0.0 0.0 0.00 0.00 0.00 90 1014.6
20260903145053 26 80 0.0 0.0 0.00 0.00 0.00 90 1014.6
20260903144550 26 80 0.0 0.0 0.00 0.00 0.00 90 1014.6
20260903144047 26 80 0.0 0.0 0.00 0.00 0.00 91 1014.9
20260903143543 26 80 0.0 0.0 0.00 0.00 0.00 91 1014.9
20260903143041 26 80 0.0 0.0 0.00 0.00 0.00 91 1014.6
20260903142538 26 80 0.0 0.0 0.00 0.00 0.00 91 1014.9
20260903141933 26 80 0.0 0.0 0.00 0.00 0.00 90 1014.9
20260903141429 26 80 0.0 0.0 0.00 0.00 0.00 90 1014.9
20260903140927 26 80 0.0 0.0 0.00 0.00 0.00 90 1014.9
20260903140424 26 80 0.0 0.0 0.00 0.00 0.00 90 1014.9
20260903135921 26 80 0.0 0.0 0.00 0.00 0.00 89 1014.9
20260903135418 26 80 0.0 0.0 0.00 0.00 0.00 89 1014.9
20260903134915 26 80 0.0 0.0 0.00 0.00 0.00 89 1014.9
20260903134412 26 80 0.0 0.0 0.00 0.00 0.00 89 1014.9
20260903133838 26 80 0.0 0.0 0.00 0.00 0.00 89 1014.9
20260903133335 26 80 0.0 0.0 0.00 0.00 0.00 89 1014.9
20260903132832 26 80 0.0 0.0 0.00 0.00 0.00 89 1014.9
20260903132329 26 80 0.0 0.0 0.00 0.00 0.00 89 1014.9
20260903131748 26 80 0.0 0.0 0.00 0.00 0.00 88 1014.9
20260903130649 26 80 0.0 0.0 0.00 0.00 0.00 88 1014.9
20260903130146 26 80 0.0 0.0 0.00 0.00 0.00 88 1014.9
20260903125644 26 80 0.0 0.0 0.00 0.00 0.00 88 1014.9
20260903125141 26 80 0.0 0.0 0.00 0.00 0.00 88 1014.6
20260903124638 26 80 0.0 0.0 0.00 0.00 0.00 89 1014.6
20260903124135 26 80 0.0 0.0 0.00 0.00 0.00 88 1014.6
20260903123632 26 80 0.0 0.0 0.00 0.00 0.00 88 1014.6
20260903123057 26 80 0.0 1.6 0.00 0.00 0.00 88 1014.6
20260903122554 27 80 0.0 1.6 0.00 0.00 0.00 89 1014.6
20260903122051 27 80 0.0 1.6 0.00 0.00 0.00 92 1014.6
20260903121548 27 80 1.6 1.6 0.00 0.00 0.00 92 1014.2
20260903121045 27 80 0.0 1.6 0.00 0.00 0.00 92 1013.9
20260903120522 27 80 0.0 1.6 0.00 0.00 0.00 92 1013.9
20260903115953 27 80 0.0 1.6 0.00 0.00 0.00 92 1013.9
20260903115349 27 80 0.0 0.0 0.00 0.00 0.00 92 1013.9
20260903114846 27 80 0.0 0.0 0.00 0.00 0.00 92 1013.9
20260903114323 27 80 0.0 1.6 0.00 0.00 0.00 92 1013.9
20260903113734 27 80 0.0 1.6 0.00 0.00 0.00 92 1013.9
20260903113231 27 80 0.0 1.6 0.00 0.00 0.00 92 1013.9
20260903112728 27 80 0.0 0.0 0.00 0.00 0.00 92 1013.9
20260903112226 27 80 0.0 0.0 0.00 0.00 0.00 92 1013.9
20260903111723 27 80 0.0 0.0 0.00 0.00 0.00 91 1013.9
20260903111220 27 80 0.0 0.0 0.00 0.00 0.00 91 1013.9
20260903110717 27 80 0.0 0.0 0.00 0.00 0.00 91 1013.9
20260903110120 27 80 0.0 0.0 0.00 0.00 0.00 91 1013.9
20260903105616 27 80 0.0 0.0 0.00 0.00 0.00 91 1013.9
20260903105043 27 80 0.0 0.0 0.00 0.00 0.00 91 1013.9
20260903104539 27 80 0.0 0.0 0.00 0.00 0.00 91 1013.9
20260903104035 27 80 0.0 0.0 0.00 0.00 0.00 91 1013.5
20260903103532 27 80 0.0 0.0 0.00 0.00 0.00 91 1013.5
20260903103028 27 80 0.0 0.0 0.00 0.00 0.00 91 1013.5
20260903102525 27 80 0.0 0.0 0.00 0.00 0.00 91 1013.5
20260903102022 27 80 0.0 0.0 0.00 0.00 0.00 91 1013.5
20260903101518 27 80 0.0 0.0 0.00 0.00 0.00 91 1013.5
20260903101015 27 80 0.0 0.0 0.00 0.00 0.00 91 1013.5
20260903100512 27 80 0.0 0.0 0.00 0.00 0.00 91 1013.5
20260903100010 27 80 0.0 0.0 0.00 0.00 0.00 91 1013.5
20260903095436 27 80 0.0 0.0 0.00 0.00 0.00 91 1013.5
20260903094933 27 80 0.0 0.0 0.00 0.00 0.00 91 1013.5
20260903094429 27 80 0.0 0.0 0.00 0.00 0.00 90 1013.5
20260903093926 27 80 0.0 0.0 0.00 0.00 0.00 90 1013.5
20260903093423 28 80 0.0 0.0 0.00 0.00 0.00 90 1013.5
20260903092902 28 80 0.0 0.0 0.00 0.00 0.00 90 1013.5
20260903092358 28 80 0.0 0.0 0.00 0.00 0.00 90 1013.5
20260903091855 28 80 0.0 0.0 0.00 0.00 0.00 90 1013.5
20260903091353 28 80 0.0 0.0 0.00 0.00 0.00 90 1013.5
20260903090759 28 80 0.0 0.0 0.00 0.00 0.00 90 1013.5
20260903090134 28 80 0.0 1.6 0.00 0.00 0.00 90 1013.5
20260903085544 28 80 0.0 1.6 0.00 0.00 0.00 90 1013.5
20260903085010 28 80 0.0 1.6 0.00 0.00 0.00 90 1013.5
20260903084449 28 80 1.6 1.6 0.00 0.00 0.00 90 1013.5
20260903083946 28 80 0.0 0.0 0.00 0.00 0.00 90 1013.5
20260903083444 28 80 0.0 0.0 0.00 0.00 0.00 90 1013.5
20260903082941 28 80 0.0 0.0 0.00 0.00 0.00 90 1013.5
20260903082438 28 80 0.0 1.6 0.00 0.00 0.00 90 1013.5
20260903081934 28 80 0.0 1.6 0.00 0.00 0.00 90 1013.5
20260903081432 28 80 0.0 1.6 0.00 0.00 0.00 90 1013.5
20260903080928 28 80 0.0 1.6 0.00 0.00 0.00 90 1013.5
20260903080353 28 91 0.0 1.6 0.00 0.00 0.00 90 1013.5
20260903075819 28 91 0.0 1.6 0.00 0.00 0.00 90 1013.2
20260903075316 28 91 0.0 1.6 0.00 0.00 0.00 90 1013.2
20260903074813 28 104 1.6 1.6 0.00 0.00 0.00 90 1013.2
20260903074309 28 162 1.6 1.6 0.00 0.00 0.00 90 1013.5
20260903073806 28 162 0.0 1.6 0.00 0.00 0.00 90 1013.2
20260903072624 28 162 0.0 0.0 0.00 0.00 0.00 90 1013.5
20260903072120 28 162 0.0 0.0 0.00 0.00 0.00 90 1013.5
20260903071617 28 162 0.0 0.0 0.00 0.00 0.00 90 1013.5
20260903071115 28 162 0.0 0.0 0.00 0.00 0.00 90 1013.5
20260903070556 28 162 0.0 0.0 0.00 0.00 0.00 90 1013.5
20260903070034 28 162 0.0 0.0 0.00 0.00 0.00 90 1013.5
20260903065532 28 162 0.0 0.0 0.00 0.00 0.00 90 1013.9
20260903065028 28 162 0.0 0.0 0.00 0.00 0.00 90 1013.9
20260903064525 28 162 0.0 0.0 0.00 0.00 0.00 90 1013.9
20260903064022 28 162 0.0 1.6 0.00 0.00 0.00 90 1013.9
20260903063520 28 162 0.0 1.6 0.00 0.00 0.00 90 1013.9
20260903063016 28 162 0.0 1.6 0.00 0.00 0.00 90 1013.9
20260903062459 28 162 0.0 1.6 0.00 0.00 0.00 90 1013.9
20260903061936 28 40 0.0 0.0 0.00 0.00 0.00 90 1014.2
20260903061402 28 40 0.0 0.0 0.00 0.00 0.00 90 1014.2
20260903060859 28 40 0.0 1.6 0.00 0.00 0.00 90 1014.2
20260903060338 28 40 0.0 1.6 0.00 0.00 0.00 89 1014.2
20260903055804 28 40 0.0 1.6 0.00 0.00 0.00 89 1014.2
20260903055301 28 40 0.0 1.6 0.00 0.00 0.00 89 1014.6
20260903054758 28 57 0.0 0.0 0.00 0.00 0.00 89 1014.6
20260903054255 28 57 0.0 0.0 0.00 0.00 0.00 89 1014.6
20260903053752 28 57 0.0 0.0 0.00 0.00 0.00 89 1014.6
20260903053248 28 57 0.0 0.0 0.00 0.00 0.00 89 1014.6
20260903052745 28 57 0.0 0.0 0.00 0.00 0.00 89 1014.6
20260903051703 28 57 0.0 0.0 0.00 0.00 0.00 89 1014.6
20260903051200 28 57 0.0 0.0 0.00 0.00 0.00 89 1014.6
20260903050657 28 57 0.0 0.0 0.00 0.00 0.00 88 1014.6
20260903050154 28 57 0.0 0.0 0.00 0.00 0.00 88 1014.6
20260903045609 28 57 0.0 0.0 0.00 0.00 0.00 88 1014.6
20260903045106 28 57 0.0 0.0 0.00 0.00 0.00 88 1014.6
20260903044603 28 57 0.0 0.0 0.00 0.00 0.00 88 1014.9
20260903044100 28 57 0.0 0.0 0.00 0.00 0.00 88 1014.9
20260903043557 28 57 0.0 0.0 0.00 0.00 0.00 88 1014.6
20260903043055 28 57 0.0 0.0 0.00 0.00 0.00 88 1014.6
20260903042552 28 57 0.0 0.0 0.00 0.00 0.00 88 1014.6
20260903042031 28 57 0.0 0.0 0.00 0.00 0.00 88 1014.6
20260903041434 28 33 0.0 0.0 0.00 0.00 0.00 88 1014.6
20260903040844 28 33 0.0 0.0 0.00 0.00 0.00 88 1014.6
20260903040326 28 33 0.0 0.0 0.00 0.00 0.00 88 1014.9
20260903035804 28 33 0.0 1.6 0.00 0.00 0.00 88 1014.9
20260903035301 28 33 0.0 1.6 0.00 0.00 0.00 88 1014.6
20260903034739 28 33 0.0 1.6 0.00 0.00 0.00 88 1014.2
20260903034204 28 33 1.6 1.6 0.00 0.00 0.00 88 1014.2
20260903033702 28 29 0.0 0.0 0.00 0.00 0.00 88 1014.6
20260903033127 28 29 0.0 1.6 0.00 0.00 0.00 88 1014.6
20260903032623 28 29 0.0 1.6 0.00 0.00 0.00 87 1014.6
20260903032121 28 29 0.0 1.6 0.00 0.00 0.00 87 1014.6
20260903031559 28 29 1.6 1.6 0.00 0.00 0.00 87 1014.6
20260903031056 28 30 0.0 1.6 0.00 0.00 0.00 87 1014.2
20260903030537 28 30 0.0 1.6 0.00 0.00 0.00 87 1014.2
20260903030034 28 30 0.0 1.6 0.00 0.00 0.00 87 1014.2
20260903025501 28 30 0.0 1.6 0.00 0.00 0.00 87 1013.9
20260903024958 29 27 0.0 1.6 0.00 0.00 0.00 87 1013.9
20260903024454 29 27 0.0 1.6 0.00 0.00 0.00 87 1013.9
20260903023951 29 355 1.6 1.6 0.00 0.00 0.00 88 1013.9
20260903023447 29 355 1.6 1.6 0.00 0.00 0.00 88 1013.9
20260903022913 29 355 0.0 3.2 0.00 0.00 0.00 88 1013.9
20260903022410 29 355 0.0 3.2 0.00 0.00 0.00 87 1013.5
20260903021907 29 355 0.0 3.2 0.00 0.00 0.00 87 1013.5
20260903021346 29 8 1.6 3.2 0.00 0.00 0.00 87 1013.5
20260903020758 29 214 0.0 1.6 0.00 0.00 0.00 87 1013.5
20260903020217 29 214 0.0 1.6 0.00 0.00 0.00 87 1013.5
20260903015714 29 214 0.0 1.6 0.00 0.00 0.00 87 1013.5
20260903015138 29 189 0.0 0.0 0.00 0.00 0.00 87 1013.5
20260903014636 29 189 0.0 0.0 0.00 0.00 0.00 87 1013.5
20260903014133 29 189 0.0 1.6 0.00 0.00 0.00 87 1013.5